Details for Jet2 at EGPH




Go Back


Latest METAR
Local Time

EGPH 180620Z 26010KT 3500 DZ BKN008 BKN030 15/15 Q1009
18/08/2018, 07:29:01

Description
Results
Jet2 Logo
Number of Pilots based at EGPH
0 Pilots Based here
Number of Jet2 Flights Departed from EGPH
1 Flights Departed
Number of Jet2 Flights Arrived at EGPH
0 Flights Arrived
Number of Jet2 Schedules Departing from EGPH
47 Schedules
Number of Jet2 Schedules Arriving at EGPH
47 Schedules
Number of Jet2 Schedules Departing from EGPH availible today
14 Schedules Today
Number of Jet2 Schedules Arriving at EGPH availible today
14 Schedules Today
Average Landing Rate at EGPH
-238 fpm
Jet2 Average Landing Rate at EGPH
0 fpm
Total Fuel Purchased at EGPH by Jet2
7,041.11 kgs / 15,522.83 lbs

Pilots Based at EGPH


Pilot ID
Pilot Name
Pilot Rank
No. of Flights
No. of Flying Hours
There are no pilots assigned to this hub!   Will you be the first?
Content